Previsão horária em Jullianges

Hoje, 19 Junho, Sábado

Tempo Temperatura Precipitação Vento Pressão Humidade
00:00 +14°C° 0 mm 1 m/s 677 mmHg 90%
01:00 +14°C° 0 mm 1 m/s 677 mmHg 91%
02:00 +13°C° 0 mm 1 m/s 677 mmHg 93%
03:00 +13°C° 0 mm 1 m/s 677 mmHg 94%
04:00 +14°C° 0 mm 1 m/s 677 mmHg 90%
05:00 +15°C° 0 mm 1 m/s 677 mmHg 87%
06:00 +18°C° 0 mm 1 m/s 677 mmHg 83%
07:00 +19°C° 0 mm 2 m/s 677 mmHg 71%
08:00 +21°C° 0 mm 3 m/s 678 mmHg 58%
09:00 +25°C° 0 mm 3 m/s 678 mmHg 46%
10:00 +25°C° 0 mm 3 m/s 678 mmHg 45%
11:00 +26°C° 0 mm 3 m/s 678 mmHg 43%
12:00 +27°C° 0 mm 3 m/s 678 mmHg 42%
13:00 +27°C° 0 mm 4 m/s 677 mmHg 41%
14:00 +28°C° 0 mm 4 m/s 677 mmHg 40%
15:00 +28°C° 0 mm 5 m/s 677 mmHg 39%
16:00 +26°C° 0 mm 4 m/s 676 mmHg 47%
17:00 +25°C° 0 mm 4 m/s 675 mmHg 55%
18:00 +22°C° 0 mm 3 m/s 674 mmHg 63%
19:00 +21°C° 0 mm 3 m/s 675 mmHg 63%
20:00 +20°C° 0 mm 4 m/s 675 mmHg 63%
21:00 +20°C° 0 mm 4 m/s 675 mmHg 64%
22:00 +18°C° 0 mm 3 m/s 675 mmHg 72%
23:00 +17°C° 0 mm 2 m/s 675 mmHg 80%

Amanhã, 20 Junho, Domingo

Tempo Temperatura Precipitação Vento Pressão Humidade
00:00 +15°C° 0 mm 1 m/s 675 mmHg 88%
01:00 +15°C° 0.3 mm 1 m/s 675 mmHg 91%
02:00 +14°C° 0.3 mm 1 m/s 674 mmHg 93%
03:00 +14°C° 0.3 mm 2 m/s 673 mmHg 96%
04:00 +15°C° 0.4 mm 2 m/s 673 mmHg 94%
05:00 +16°C° 0.4 mm 2 m/s 673 mmHg 91%
06:00 +17°C° 0.4 mm 2 m/s 673 mmHg 89%
07:00 +18°C° 0.4 mm 4 m/s 673 mmHg 81%
08:00 +20°C° 0.4 mm 5 m/s 673 mmHg 72%
09:00 +22°C° 0.4 mm 7 m/s 673 mmHg 64%
10:00 +21°C° 1.3 mm 6 m/s 673 mmHg 70%
11:00 +20°C° 1.3 mm 5 m/s 673 mmHg 76%
12:00 +19°C° 1.3 mm 4 m/s 673 mmHg 82%
13:00 +20°C° 1.1 mm 4 m/s 673 mmHg 81%
14:00 +20°C° 1.1 mm 4 m/s 673 mmHg 81%
15:00 +20°C° 1.1 mm 3 m/s 672 mmHg 80%
16:00 +19°C° 1.3 mm 3 m/s 672 mmHg 83%
17:00 +19°C° 1.3 mm 3 m/s 672 mmHg 85%
18:00 +18°C° 1.3 mm 2 m/s 671 mmHg 88%
19:00 +16°C° 1.4 mm 2 m/s 672 mmHg 91%
20:00 +15°C° 1.4 mm 2 m/s 672 mmHg 94%
21:00 +14°C° 1.4 mm 1 m/s 672 mmHg 96%
22:00 +13°C° 0.2 mm 1 m/s 672 mmHg 96%
23:00 +12°C° 0.2 mm 1 m/s 672 mmHg 96%

Depois de amanhã, 21 Junho, Segunda-feira

Tempo Temperatura Precipitação Vento Pressão Humidade
00:00 +11°C° 0.2 mm 0 m/s 672 mmHg 96%
01:00 +12°C° 0 mm 1 m/s 672 mmHg 96%
02:00 +12°C° 0 mm 1 m/s 672 mmHg 95%
03:00 +12°C° 0 mm 1 m/s 672 mmHg 95%
04:00 +13°C° 0 mm 1 m/s 672 mmHg 94%
05:00 +14°C° 0 mm 1 m/s 672 mmHg 92%
06:00 +14°C° 0 mm 1 m/s 672 mmHg 91%
07:00 +18°C° 0 mm 1 m/s 672 mmHg 80%
08:00 +20°C° 0 mm 1 m/s 673 mmHg 68%
09:00 +21°C° 0 mm 2 m/s 673 mmHg 56%
10:00 +23°C° 0.3 mm 2 m/s 673 mmHg 52%
11:00 +24°C° 0.3 mm 2 m/s 673 mmHg 49%
12:00 +25°C° 0.3 mm 3 m/s 673 mmHg 45%
13:00 +24°C° 0.2 mm 3 m/s 673 mmHg 48%
14:00 +22°C° 0.2 mm 3 m/s 673 mmHg 52%
15:00 +22°C° 0.2 mm 3 m/s 673 mmHg 55%
16:00 +20°C° 1.1 mm 3 m/s 673 mmHg 65%
17:00 +18°C° 1.1 mm 2 m/s 672 mmHg 75%
18:00 +16°C° 1.1 mm 2 m/s 672 mmHg 84%
19:00 +15°C° 2 mm 1 m/s 673 mmHg 88%
20:00 +14°C° 2 mm 1 m/s 673 mmHg 92%
21:00 +12°C° 2 mm 1 m/s 673 mmHg 96%
22:00 +11°C° 0.6 mm 0 m/s 673 mmHg 97%
23:00 +10°C° 0.6 mm 0 m/s 673 mmHg 97%

22 Junho, Terça-feira

Tempo Temperatura Precipitação Vento Pressão Humidade
00:00 +10°C° 0.6 mm 0 m/s 673 mmHg 98%
01:00 +10°C° 0.3 mm 0 m/s 673 mmHg 97%
02:00 +10°C° 0.3 mm 0 m/s 673 mmHg 97%
03:00 +10°C° 0.3 mm 0 m/s 673 mmHg 97%
04:00 +10°C° 0.1 mm 0 m/s 673 mmHg 96%
05:00 +11°C° 0.1 mm 0 m/s 673 mmHg 96%
06:00 +11°C° 0.1 mm 0 m/s 674 mmHg 95%
07:00 +13°C° 0.6 mm 0 m/s 674 mmHg 89%
08:00 +15°C° 0.6 mm 0 m/s 674 mmHg 83%
09:00 +16°C° 0.6 mm 0 m/s 675 mmHg 78%
10:00 +19°C° 0.9 mm 1 m/s 675 mmHg 75%
11:00 +20°C° 0.9 mm 1 m/s 675 mmHg 72%
12:00 +20°C° 0.9 mm 1 m/s 675 mmHg 68%
13:00 +20°C° 0.7 mm 1 m/s 675 mmHg 70%
14:00 +20°C° 0.7 mm 1 m/s 675 mmHg 71%
15:00 +20°C° 0.7 mm 1 m/s 675 mmHg 72%
16:00 +18°C° 1.2 mm 1 m/s 675 mmHg 79%
17:00 +16°C° 1.2 mm 1 m/s 675 mmHg 85%
18:00 +15°C° 1.2 mm 1 m/s 675 mmHg 91%
19:00 +14°C° 1.5 mm 1 m/s 675 mmHg 93%
20:00 +13°C° 1.5 mm 1 m/s 675 mmHg 95%
21:00 +12°C° 1.5 mm 1 m/s 675 mmHg 96%
22:00 +11°C° 0.5 mm 1 m/s 675 mmHg 97%
23:00 +11°C° 0.5 mm 1 m/s 675 mmHg 97%

23 Junho, Quarta-feira

Tempo Temperatura Precipitação Vento Pressão Humidade
00:00 +11°C° 0.5 mm 1 m/s 675 mmHg 97%
01:00 +11°C° 1.5 mm 1 m/s 675 mmHg 97%
02:00 +11°C° 1.5 mm 1 m/s 675 mmHg 98%
03:00 +11°C° 1.5 mm 1 m/s 675 mmHg 98%
04:00 +11°C° 0.9 mm 1 m/s 675 mmHg 97%
05:00 +11°C° 0.9 mm 1 m/s 676 mmHg 97%
06:00 +11°C° 0.9 mm 1 m/s 676 mmHg 96%
07:00 +13°C° 0.2 mm 1 m/s 677 mmHg 90%
08:00 +14°C° 0.2 mm 1 m/s 677 mmHg 83%
09:00 +15°C° 0.2 mm 1 m/s 678 mmHg 77%
10:00 +18°C° 0.2 mm 1 m/s 678 mmHg 69%
11:00 +19°C° 0.2 mm 1 m/s 678 mmHg 60%
12:00 +21°C° 0.2 mm 1 m/s 679 mmHg 52%
13:00 +20°C° 0.2 mm 1 m/s 679 mmHg 56%
14:00 +19°C° 0.2 mm 2 m/s 679 mmHg 59%
15:00 +19°C° 0.2 mm 2 m/s 679 mmHg 63%
16:00 +18°C° 0.3 mm 2 m/s 679 mmHg 70%
17:00 +18°C° 0.3 mm 1 m/s 679 mmHg 77%
18:00 +16°C° 0.3 mm 1 m/s 679 mmHg 83%
19:00 +14°C° 0.1 mm 1 m/s 679 mmHg 87%
20:00 +13°C° 0.1 mm 1 m/s 679 mmHg 90%
21:00 +11°C° 0.1 mm 1 m/s 679 mmHg 93%
22:00 +11°C° 0 mm 1 m/s 679 mmHg 94%
23:00 +10°C° 0 mm 1 m/s 680 mmHg 95%

24 Junho, Quinta-feira

Tempo Temperatura Precipitação Vento Pressão Humidade
00:00 +10°C° 0 mm 1 m/s 680 mmHg 95%
01:00 +9°C° 0 mm 1 m/s 680 mmHg 96%
02:00 +9°C° 0 mm 1 m/s 680 mmHg 96%
03:00 +9°C° 0 mm 1 m/s 679 mmHg 96%
04:00 +10°C° 0 mm 1 m/s 680 mmHg 95%
05:00 +10°C° 0 mm 0 m/s 680 mmHg 94%
06:00 +11°C° 0 mm 0 m/s 680 mmHg 93%
07:00 +13°C° 0 mm 1 m/s 681 mmHg 83%
08:00 +15°C° 0 mm 1 m/s 681 mmHg 74%
09:00 +18°C° 0 mm 1 m/s 682 mmHg 65%
10:00 +19°C° 0 mm 1 m/s 682 mmHg 60%
11:00 +20°C° 0 mm 1 m/s 682 mmHg 56%
12:00 +20°C° 0 mm 2 m/s 682 mmHg 52%
13:00 +20°C° 0 mm 2 m/s 682 mmHg 51%
14:00 +20°C° 0 mm 2 m/s 681 mmHg 51%
15:00 +20°C° 0 mm 2 m/s 681 mmHg 50%
16:00 +19°C° 0.3 mm 2 m/s 681 mmHg 62%
17:00 +19°C° 0.3 mm 1 m/s 681 mmHg 73%
18:00 +16°C° 0.3 mm 1 m/s 680 mmHg 85%
19:00 +15°C° 0.2 mm 1 m/s 680 mmHg 88%
20:00 +13°C° 0.2 mm 1 m/s 680 mmHg 91%
21:00 +12°C° 0.2 mm 1 m/s 680 mmHg 94%
22:00 +12°C° 0.1 mm 1 m/s 680 mmHg 95%
23:00 +11°C° 0.1 mm 0 m/s 680 mmHg 95%
Mostrar mais

Necessitamos do seu Consentimento

A Meteoprog e os seus Fornecedores de Serviços podem armazenar e aceder a dados pessoais como cookies, identificadores do dispositivo ou outras tecnologias semelhantes existentes no seu dispositivo e processar estes dados para personalizar conteúdos e anúncios, assim como funcionalidades nas redes sociais e análise de tráfego.

  • Armazenar e/ou aceder a informações no seu dispositivo

    Os cookies, identificadores do dispositivo ou outras informações podem ser armazenados ou acedidos no seu dispositivo, para os fins acima indicados.

  • Anúncios e conteúdos personalizados, medição de anúncios e conteúdos, dados sobre o público-alvo e desenvolvimento de produtos

    Os anúncios e os conteúdos podem ser personalizados com base num perfil. Podem ser adicionados dados adicionais para uma maior personalização dos anúncios e dos conteúdos. A eficácia dos anúncios e dos conteúdos pode ser medida. Podem ser obtidas informações sobre o público que visualizou os anúncios e os conteúdos. Estes dados podem ser usados para desenvolver ou melhorar sistemas, softwares ou a experiência do utilizador.

Ao clicar em "Eu concordo”, permitirá o uso de cookies, identificadores do dispositivo e web beacons mencionados ou outras tecnologias semelhantes. As configurações do navegador do seu dispositivo podem ser alteradas.

Para certos fins, podem ser invocados interesses legítimos ao invés de consentimento. Pode ler mais informação sobre este assunto na nossa Política de Privacidade e Cookies.